Date String (YYYY-MM-DD hh:mm:ss) UTC,Instrument flags,Ambient pressure (hPa),Sample flow (lpm),Bypass flow (lpm),Sample temperature (°C),Ambient temperature (°C),ASC tube jacket temperature (°C),LED temperature (°C),Box temperature (°C),Sample RH (%),Span deviation,Mass concentration (μg/m³),Mass concentration (μg/m³),Mass concentration (μg/m³)
DateTimeUTC,F1_M11,P_M11,Q1_M11,Q2_M11,T1_M11,T2_M11,T3_M11,T4_M11,T5_M11,U1_M11,ZSPAN_M11,X0_M11,X2_M11,X1_M11
2022-12-06 05:00:00,,0818.1,5.00,0.00,22.1,20.9,00.0,31.0,24.0,15.6,0000.0,0006.79,0001.58,0000.97
2022-12-06 05:01:00,,0818.1,4.99,0.00,22.1,20.9,00.0,31.0,24.0,15.7,0000.0,0005.82,0001.59,0000.98
2022-12-06 05:02:00,,0818.1,5.00,0.00,22.1,20.9,00.0,31.0,24.0,15.7,0000.0,0006.00,0001.66,0000.99
2022-12-06 05:03:00,,0818.1,5.00,0.00,22.1,20.9,00.0,31.0,24.0,15.7,0000.0,0006.16,0001.74,0001.01
2022-12-06 05:04:00,,0818.1,5.00,0.00,22.1,20.9,00.0,31.0,24.0,15.8,0000.0,0006.42,0001.81,0001.03
2022-12-06 05:05:00,,0818.2,5.00,0.00,22.1,20.8,00.0,31.0,24.0,15.8,0000.0,0006.44,0001.82,0001.03
2022-12-06 05:06:00,,0818.1,5.00,0.00,22.1,20.8,00.0,31.0,24.0,15.8,0000.0,0006.98,0001.93,0001.06
2022-12-06 05:07:00,,0818.1,5.01,0.00,22.1,20.8,00.0,31.0,24.0,15.8,0000.0,0007.35,0002.08,0001.10
2022-12-06 05:08:00,,0818.1,5.00,0.00,22.1,20.8,00.0,31.0,24.0,15.8,0000.0,0007.63,0002.19,0001.14
2022-12-06 05:09:00,,0818.1,5.00,0.00,22.1,20.8,00.0,31.0,24.0,15.8,0000.0,0007.75,0002.25,0001.16
2022-12-06 05:10:00,,0818.1,4.99,0.00,22.1,20.8,00.0,31.0,24.0,15.7,0000.0,0007.95,0002.35,0001.19
2022-12-06 05:11:00,,0818.1,5.00,0.00,22.1,20.8,00.0,31.0,24.0,15.7,0000.0,0007.21,0002.39,0001.20
2022-12-06 05:12:00,,0818.2,4.99,0.00,22.1,20.8,00.0,31.0,24.0,15.7,0000.0,0007.47,0002.43,0001.22
2022-12-06 05:13:00,,0818.2,5.00,0.00,22.1,20.8,00.0,31.0,24.0,15.7,0000.0,0007.57,0002.44,0001.23
2022-12-06 05:14:00,,0818.2,5.00,0.00,22.1,20.8,00.0,31.0,24.0,15.7,0000.0,0007.59,0002.45,0001.23
2022-12-06 05:15:00,,0818.2,5.00,0.00,22.1,20.8,00.0,31.0,24.0,15.6,0000.0,0008.28,0002.44,0001.23
2022-12-06 05:16:00,,0818.2,5.00,0.00,22.1,20.8,00.0,31.0,24.0,15.5,0000.0,0008.66,0002.51,0001.23
2022-12-06 05:17:00,,0818.3,5.00,0.00,22.1,20.8,00.0,31.0,24.0,15.6,0000.0,0008.94,0002.51,0001.23
2022-12-06 05:18:00,,0818.3,5.00,0.00,22.1,20.8,00.0,31.0,24.0,15.6,0000.0,0009.31,0002.49,0001.23
2022-12-06 05:19:00,,0818.4,5.00,0.00,22.1,20.8,00.0,31.0,23.9,15.6,0000.0,0009.23,0002.41,0001.22
2022-12-06 05:20:00,,0818.4,5.00,0.00,22.1,20.8,00.0,31.0,23.9,15.6,0000.0,0009.33,0002.46,0001.24
2022-12-06 05:21:00,,0818.4,5.00,0.00,22.1,20.8,00.0,31.0,23.9,15.7,0000.0,0009.90,0002.54,0001.27
2022-12-06 05:22:00,,0818.4,5.00,0.00,22.1,20.8,00.0,31.0,23.9,15.7,0000.0,0010.40,0002.64,0001.30
2022-12-06 05:23:00,,0818.3,5.00,0.00,22.1,20.8,00.0,31.0,23.9,15.6,0000.0,0010.95,0002.66,0001.32
2022-12-06 05:24:00,,0818.3,5.00,0.00,22.1,20.8,00.0,31.0,23.9,15.6,0000.0,0011.27,0002.63,0001.33
2022-12-06 05:25:00,,0818.3,5.00,0.00,22.1,20.8,00.0,31.0,23.9,15.6,0000.0,0011.67,0002.65,0001.34
2022-12-06 05:26:00,,0818.3,5.00,0.00,22.1,20.7,00.0,31.0,23.9,15.6,0000.0,0011.16,0002.65,0001.37
2022-12-06 05:27:00,,0818.2,5.00,0.00,22.0,20.7,00.0,31.0,23.9,15.6,0000.0,0010.66,0002.64,0001.39
2022-12-06 05:28:00,,0818.2,5.00,0.00,22.0,20.7,00.0,31.0,23.9,15.6,0000.0,0010.75,0002.68,0001.41
2022-12-06 05:29:00,,0818.1,5.00,0.00,22.1,20.7,00.0,31.0,23.9,15.5,0000.0,0010.55,0002.70,0001.41
2022-12-06 05:30:00,,0818.0,5.00,0.00,22.0,20.7,00.0,31.0,23.9,15.6,0000.0,0010.64,0002.83,0001.42
2022-12-06 05:31:00,,0818.0,5.00,0.00,22.0,20.7,00.0,31.0,23.9,15.5,0000.0,0010.82,0002.80,0001.41
2022-12-06 05:32:00,,0818.0,5.00,0.00,22.0,20.7,00.0,31.0,23.9,15.4,0000.0,0010.30,0002.77,0001.38
2022-12-06 05:33:00,,0818.1,5.00,0.00,22.0,20.7,00.0,31.0,23.9,15.3,0000.0,0009.64,0002.69,0001.36
2022-12-06 05:34:00,,0818.1,5.00,0.00,22.0,20.7,00.0,31.0,23.9,15.3,0000.0,0008.77,0002.59,0001.35
2022-12-06 05:35:00,,0818.1,5.00,0.00,22.0,20.7,00.0,31.0,23.9,15.3,0000.0,0008.30,0002.58,0001.34
2022-12-06 05:36:00,,0818.1,5.00,0.00,22.0,20.7,00.0,31.0,23.9,15.3,0000.0,0008.51,0002.55,0001.32
2022-12-06 05:37:00,,0818.1,5.00,0.00,22.0,20.7,00.0,31.0,23.9,15.2,0000.0,0008.50,0002.56,0001.30
2022-12-06 05:38:00,,0818.1,5.01,0.00,22.0,20.7,00.0,31.0,23.9,15.2,0000.0,0009.32,0002.59,0001.27
2022-12-06 05:39:00,,0818.2,5.01,0.00,22.0,20.7,00.0,31.0,23.9,15.2,0000.0,0008.99,0002.56,0001.23
2022-12-06 05:40:00,,0818.2,4.99,0.00,22.0,20.7,00.0,31.0,23.9,15.2,0000.0,0009.60,0002.48,0001.21
2022-12-06 05:41:00,,0818.2,4.99,0.00,22.0,20.7,00.0,31.0,23.9,15.2,0000.0,0009.07,0002.38,0001.19
2022-12-06 05:42:00,,0818.2,4.99,0.00,22.0,20.7,00.0,31.0,23.9,15.0,0000.0,0008.64,0002.38,0001.18
2022-12-06 05:43:00,,0818.3,4.99,0.00,22.0,20.7,00.0,31.0,23.9,15.0,0000.0,0008.43,0002.31,0001.15
2022-12-06 05:44:00,,0818.3,5.00,0.00,22.0,20.7,00.0,31.0,23.8,15.0,0000.0,0008.44,0002.32,0001.14
2022-12-06 05:45:00,,0818.3,5.00,0.00,22.0,20.7,00.0,31.0,23.9,15.0,0000.0,0008.63,0002.37,0001.13
2022-12-06 05:46:00,,0818.2,5.00,0.00,22.0,20.7,00.0,31.0,23.8,15.0,0000.0,0009.05,0002.44,0001.12
2022-12-06 05:47:00,,0818.2,5.01,0.00,22.0,20.7,00.0,31.0,23.9,14.7,0000.0,0008.75,0002.43,0001.13
2022-12-06 05:48:00,,0818.2,5.00,0.00,22.0,20.7,00.0,31.0,23.8,14.7,0000.0,0008.71,0002.40,0001.12
2022-12-06 05:49:00,,0818.3,5.00,0.00,22.0,20.7,00.0,31.0,23.8,14.8,0000.0,0008.17,0002.28,0001.12
2022-12-06 05:50:00,,0818.3,5.00,0.00,22.0,20.7,00.0,31.0,23.8,14.5,0000.0,0007.90,0002.18,0001.10
2022-12-06 05:51:00,,0818.3,5.00,0.00,22.0,20.6,00.0,31.0,23.8,14.5,0000.0,0006.94,0002.12,0001.08
2022-12-06 05:52:00,,0818.3,5.00,0.00,22.0,20.6,00.0,31.0,23.9,14.5,0000.0,0006.74,0002.09,0001.07
2022-12-06 05:53:00,,0818.3,5.00,0.00,22.0,20.6,00.0,31.0,23.8,14.5,0000.0,0006.64,0002.02,0001.04
2022-12-06 05:54:00,,0818.2,5.00,0.00,22.0,20.6,00.0,30.9,23.8,14.4,0000.0,0007.29,0001.99,0001.02
2022-12-06 05:55:00,,0818.2,5.00,0.00,22.0,20.6,00.0,30.9,23.8,14.4,0000.0,0007.15,0001.87,0000.99
2022-12-06 05:56:00,,0818.2,5.00,0.00,22.0,20.6,00.0,30.9,23.8,14.3,0000.0,0007.54,0001.81,0000.97
2022-12-06 05:57:00,,0818.3,5.00,0.00,22.0,20.5,00.0,30.9,23.8,14.3,0000.0,0007.53,0001.73,0000.93
2022-12-06 05:58:00,,0818.3,5.00,0.00,21.9,20.5,00.0,30.9,23.8,14.3,0000.0,0007.41,0001.64,0000.90
2022-12-06 05:59:00,,0818.4,5.00,0.00,21.9,20.6,00.0,30.9,23.8,14.2,0000.0,0007.32,0001.56,0000.88
